FW6766 Weather Reports


Display with metric or nautical units.
time (UTC)temp
F
wind
direction
speed
MPH
gust
MPH
rain 1hr
in
rain 24hr
in
rain mn
in
humidity
%
barometer
mb
20260507215015 66 0 1.0 3.0 0.00 2.39 1.13 74 1013.6
20260507214015 66 248 1.0 7.0 0.00 2.39 1.13 73 1013.7
20260507213017 66 0 3.0 10.0 0.00 2.39 1.13 74 1013.5
20260507212018 66 225 2.0 7.0 0.00 2.39 1.13 74 1013.5
20260507211017 67 0 1.0 6.0 0.00 2.39 1.13 72 1013.2
20260507210017 68 203 1.0 9.0 0.00 2.39 1.13 72 1013.3
20260507205037 68 225 1.0 5.0 0.00 2.39 1.13 72 1013.2
20260507204017 69 180 3.0 7.0 0.00 2.39 1.13 70 1013.3
20260507203017 68 225 3.0 9.0 0.00 2.39 1.13 72 1013.2
20260507202017 67 203 3.0 7.0 0.00 2.39 1.13 76 1013.2
20260507201039 67 225 2.0 6.0 0.00 2.39 1.13 77 1013.4
20260507200017 66 203 3.0 10.0 0.00 2.39 1.13 75 1013.2
20260507195017 67 203 3.0 8.0 0.00 2.39 1.13 77 1013.2
20260507193017 67 0 1.0 6.0 0.00 2.39 1.13 79 1013.2
20260507192017 68 0.0 4.0 0.00 2.39 1.13 78 1013.3
20260507191017 69 225 1.0 5.0 0.00 2.39 1.13 79 1013.3
20260507190017 68 225 3.0 7.0 0.00 2.39 1.13 79 1013.3
20260507185038 67 225 4.0 11.0 0.00 2.39 1.13 77 1013.5
20260507184017 67 203 2.0 7.0 0.00 2.39 1.13 82 1013.5
20260507183017 66 180 2.0 6.0 0.00 2.39 1.13 81 1013.6
20260507182017 66 203 3.0 10.0 0.00 2.39 1.13 81 1013.8
20260507181017 66 203 2.0 7.0 0.00 2.39 1.13 83 1013.8
20260507180017 66 248 2.0 4.0 0.00 2.39 1.13 84 1013.6
20260507175017 66 0 2.0 8.0 0.00 2.39 1.13 85 1013.8
20260507174017 66 203 1.0 4.0 0.00 2.39 1.13 84 1013.6
20260507173017 67 0 2.0 10.0 0.00 2.39 1.13 83 1013.4
20260507172016 67 135 2.0 5.0 0.00 2.39 1.13 85 1013.6
20260507171037 68 203 1.0 5.0 0.00 2.39 1.13 85 1013.5
20260507170037 68 225 2.0 9.0 0.00 2.39 1.13 88 1013.4
20260507165017 67 0 2.0 9.0 0.00 2.39 1.13 87 1013.2
20260507164017 66 0 3.0 8.0 0.00 2.39 1.13 88 1013.3
20260507163016 66 0 2.0 6.0 0.00 2.39 1.13 91 1013.3
20260507162016 65 203 2.0 8.0 0.00 2.39 1.13 95 1013.2
20260507161016 64 203 1.0 4.0 0.00 2.39 1.13 93 1013.1
20260507160036 65 203 1.0 7.0 0.00 2.39 1.13 95 1013.2
20260507155016 65 203 1.0 3.0 0.00 2.39 1.13 96 1013.0
20260507154017 65 23 1.0 5.0 0.00 2.39 1.13 96 1012.8
20260507153016 65 0 1.0 4.0 0.00 2.39 1.13 96 1012.7
20260507152016 65 0.0 0.0 0.00 2.39 1.13 96 1012.5
20260507151016 65 0.0 0.0 0.00 2.39 1.13 97 1012.4
20260507150016 65 203 1.0 8.0 0.00 2.39 1.13 97 1012.6
20260507145016 64 225 1.0 3.0 0.00 2.39 1.13 97 1012.5
20260507144016 64 225 1.0 4.0 0.03 2.39 1.13 97 1012.7
20260507143017 64 23 1.0 3.0 0.04 2.39 1.13 97 1012.7
20260507142056 64 0.0 0.0 0.04 2.39 1.13 97 1012.6
20260507141016 63 293 1.0 4.0 0.04 2.39 1.13 97 1012.8
20260507140016 63 23 1.0 4.0 0.05 2.39 1.13 97 1012.5
20260507135016 63 0.0 0.0 0.07 2.39 1.13 97 1012.6
20260507134037 63 0.0 0.0 0.04 2.36 1.10 96 1012.7
20260507133017 63 0.0 0.0 0.03 2.35 1.09 97 1013.1
20260507132036 63 0.0 0.0 0.07 2.35 1.09 97 1012.2
20260507131016 63 0.0 0.0 0.09 2.35 1.09 97 1011.6
20260507130036 62 0.0 0.0 0.14 2.34 1.08 96 1012.2
20260507125016 62 0.0 0.0 0.16 2.32 1.06 96 1012.4
20260507124016 62 0.0 0.0 0.20 2.32 1.06 96 1011.9
20260507123016 62 0.0 1.0 0.20 2.32 1.06 96 1012.0
20260507122037 62 0.0 2.0 0.17 2.28 1.02 96 1013.0
20260507121016 62 0.0 3.0 0.16 2.26 1.00 96 1012.1
20260507120036 62 45 1.0 6.0 0.16 2.20 0.94 96 1012.4
20260507115156 62 68 1.0 6.0 0.21 2.16 0.90 96 1011.8
20260507114016 62 0.0 4.0 0.24 2.12 0.86 96 1011.4
20260507113016 62 0.0 1.0 0.27 2.12 0.86 96 1011.3
20260507112016 62 0.0 2.0 0.26 2.11 0.85 96 1011.3
20260507111016 62 0.0 3.0 0.26 2.10 0.84 96 1011.3
20260507110016 62 0.0 4.0 0.22 2.04 0.78 96 1011.3
20260507105016 62 45 1.0 7.0 0.14 1.95 0.69 96 1011.2
20260507104016 62 0 1.0 4.0 0.08 1.88 0.62 96 1011.2
20260507103015 62 0.0 0.0 0.05 1.85 0.59 96 1010.9
20260507102015 62 0.0 0.0 0.05 1.85 0.59 96 1010.7
20260507101016 62 0.0 0.0 0.04 1.84 0.58 96 1010.7
20260507100015 62 0.0 0.0 0.02 1.82 0.56 96 1010.9
20260507095015 62 0.0 0.0 0.01 1.81 0.55 96 1011.0
20260507094015 62 0.0 0.0 0.00 1.80 0.54 96 1011.4
20260507093035 62 0.0 0.0 0.00 1.80 0.54 96 1011.5
20260507092017 63 0.0 0.0 0.00 1.80 0.54 96 1011.6
20260507091017 63 0.0 0.0 0.00 1.80 0.54 96 1011.5
20260507090038 63 0.0 0.0 0.01 1.80 0.54 96 1011.4
20260507085037 63 0.0 0.0 0.02 1.80 0.54 96 1011.9
20260507084017 63 0.0 0.0 0.03 1.80 0.54 96 1012.3
20260507083017 63 0.0 0.0 0.04 1.80 0.54 96 1012.1
20260507082017 63 0.0 0.0 0.04 1.80 0.54 96 1012.1
20260507081017 63 0.0 0.0 0.04 1.80 0.54 96 1012.1
20260507080018 63 0.0 0.0 0.03 1.79 0.53 96 1012.2
20260507075017 63 0.0 0.0 0.02 1.78 0.52 96 1012.1
20260507074017 63 0.0 0.0 0.01 1.77 0.51 96 1012.1
20260507073017 63 0.0 0.0 0.00 1.76 0.50 96 1012.6
20260507072037 63 0.0 0.0 0.01 1.76 0.50 96 1013.0
20260507071017 63 0.0 0.0 0.02 1.76 0.50 96 1012.9
20260507070018 63 0.0 0.0 0.03 1.76 0.50 96 1012.6
20260507065017 63 0.0 4.0 0.04 1.76 0.50 95 1012.5
20260507064017 63 0.0 3.0 0.05 1.76 0.50 96 1012.5
20260507063017 63 0.0 0.0 0.06 1.76 0.50 95 1013.1
20260507062017 63 0.0 0.0 0.06 1.75 0.49 95 1013.7
20260507061016 63 0.0 0.0 0.07 1.74 0.48 95 1013.4
20260507060017 63 0.0 0.0 0.08 1.73 0.47 95 1013.8
20260507055038 63 0.0 0.0 0.14 1.72 0.46 96 1013.7
20260507054036 63 0.0 0.0 0.17 1.71 0.45 95 1013.6
20260507053016 63 0.0 0.0 0.23 1.70 0.44 95 1014.0
20260507052017 63 0.0 0.0 0.35 1.69 0.43 95 1014.1
20260507051016 63 0.0 0.0 0.40 1.67 0.41 95 1014.4
20260507050016 63 0.0 0.0 0.39 1.65 0.39 95 1014.3
20260507045016 63 0.0 0.0 0.32 1.58 0.32 95 1014.8
20260507044037 63 0.0 0.0 0.29 1.54 0.28 95 1014.4
20260507043017 63 0.0 2.0 0.23 1.47 0.21 95 1014.3
20260507042016 63 0.0 3.0 0.12 1.34 0.08 95 1014.1
20260507041016 63 0.0 3.0 0.09 1.27 0.01 95 1014.2
20260507040016 63 203 1.0 5.0 0.13 1.26 1.26 95 1014.4
20260507035016 63 203 2.0 5.0 0.17 1.26 1.26 95 1014.1
20260507034017 63 0.0 2.0 0.24 1.25 1.25 95 1013.5
20260507033016 63 0.0 0.0 0.31 1.24 1.24 95 1013.7
20260507032036 63 0.0 0.0 0.34 1.22 1.22 95 1014.4
20260507031016 63 0.0 0.0 0.31 1.18 1.18 95 1014.7
20260507030016 63 0.0 2.0 0.36 1.13 1.13 95 1014.8
20260507025016 63 0.0 0.0 0.35 1.09 1.09 94 1014.7
20260507024016 63 0.0 0.0 0.30 1.01 1.01 94 1014.8
20260507023017 63 0.0 0.0 0.25 0.93 0.93 94 1014.6
20260507022036 64 0.0 0.0 0.24 0.88 0.88 94 1014.2
20260507021016 64 0.0 0.0 0.25 0.87 0.87 94 1014.3
20260507020016 64 0.0 0.0 0.16 0.77 0.77 94 1013.9
20260507015016 64 0 1.0 4.0 0.16 0.74 0.74 93 1013.7
20260507014016 64 45 1.0 2.0 0.13 0.71 0.71 92 1013.5
20260507013036 65 0.0 0.0 0.10 0.68 0.68 91 1014.8
20260507012037 66 0 2.0 10.0 0.06 0.64 0.64 91 1015.0
20260507011016 68 23 1.0 6.0 0.07 0.62 0.62 93 1014.0
20260507010016 68 270 1.0 4.0 0.06 0.61 0.61 94 1014.0
20260507005016 68 0.0 0.0 0.03 0.58 0.58 93 1013.4
20260507004016 68 0.0 0.0 0.06 0.58 0.58 93 1013.6
20260507003017 69 0.0 0.0 0.09 0.58 0.58 93 1013.4
20260507002016 69 0.0 0.0 0.23 0.58 0.58 93 1013.7
20260507001015 69 0.0 0.0 0.54 0.55 0.55 92 1013.4
20260507000016 69 0.0 0.0 0.55 0.55 0.55 92 1013.6
20260506235016 69 0.0 2.0 0.55 0.55 0.55 91 1013.4
20260506234016 69 203 1.0 3.0 0.52 0.52 0.52 90 1013.6
20260506233016 69 158 1.0 2.0 0.49 0.49 0.49 88 1013.4
20260506232016 72 225 3.0 10.0 0.35 0.35 0.35 83 1013.9
20260506231036 76 203 3.0 5.0 0.01 0.01 0.01 77 1013.4
20260506230015 76 180 1.0 4.0 0.00 0.00 0.00 70 1012.4
20260506225036 76 0.0 0.0 0.00 0.00 0.00 70 1012.8
20260506224016 76 0 2.0 5.0 0.00 0.00 0.00 69 1013.3
20260506223015 77 0 1.0 5.0 0.00 0.00 0.00 68 1013.4
20260506222015 77 180 1.0 4.0 0.00 0.00 0.00 67 1013.6
20260506221036 77 203 2.0 3.0 0.00 0.00 0.00 66 1013.4
20260506220015 78 0 1.0 3.0 0.00 0.00 0.00 65 1013.5
20260506215035 78 0 2.0 6.0 0.00 0.00 0.00 64 1013.4